FW4370 Weather Reports


Display with metric or nautical units.
time (UTC)temp
F
wind
direction
speed
MPH
gust
MPH
rain 1hr
in
rain 24hr
in
rain mn
in
humidity
%
barometer
mb
20260505060050 51 207 4.0 13.0 0.00 0.00 0.00 30 1006.7
20260505054523 51 184 4.0 11.0 0.00 0.00 0.00 29 1006.8
20260505053021 51 218 4.0 10.0 0.00 0.00 0.00 29 1007.1
20260505051618 52 250 3.0 9.0 0.00 0.00 0.00 28 1007.1
20260505041506 53 206 3.0 11.0 0.00 0.00 0.00 27 1006.6
20260505034555 53 193 3.0 10.0 0.00 0.00 0.00 26 1006.4
20260505033052 54 238 5.0 11.0 0.00 0.00 0.00 25 1006.5
20260505031547 54 218 1.0 7.0 0.00 0.00 0.00 25 1005.8
20260505024543 55 231 6.0 13.0 0.00 0.00 0.00 24 1005.3
20260505023037 56 246 5.0 12.0 0.00 0.00 0.00 23 1005.3
20260505021534 56 285 6.0 12.0 0.00 0.00 0.00 23 1005.1
20260505020039 57 199 4.0 11.0 0.00 0.00 0.00 22 1004.9
20260505014535 57 236 5.0 17.0 0.00 0.00 0.00 22 1004.7
20260505013031 58 234 7.0 15.0 0.00 0.00 0.00 21 1004.7
20260505011528 58 238 4.0 18.0 0.00 0.00 0.00 20 1004.7
20260505010016 59 221 6.0 15.0 0.00 0.00 0.00 20 1004.4
20260505004510 60 254 7.0 17.0 0.00 0.00 0.00 20 1004.6
20260505003004 61 176 10.0 18.0 0.00 0.00 0.00 19 1004.9
20260505001502 62 199 7.0 17.0 0.00 0.00 0.00 19 1004.8
20260505000104 62 245 11.0 19.0 0.00 0.00 0.00 19 1004.5
20260504234557 63 244 8.0 17.0 0.00 0.00 0.00 19 1004.5
20260504233057 64 310 9.0 17.0 0.00 0.00 0.00 19 1004.5
20260504231553 63 206 9.0 18.0 0.00 0.00 0.00 20 1004.5
20260504230051 64 240 8.0 18.0 0.00 0.00 0.00 20 1004.2
20260504224548 64 231 9.0 19.0 0.00 0.00 0.00 21 1004.5
20260504223101 64 233 11.0 21.0 0.00 0.00 0.00 21 1004.4
20260504221544 64 244 10.0 23.0 0.00 0.00 0.00 22 1004.4
20260504220043 64 234 11.0 21.0 0.00 0.00 0.00 24 1004.7
20260504214541 64 218 11.0 22.0 0.00 0.00 0.00 25 1004.6
20260504213038 65 249 10.0 18.0 0.00 0.00 0.00 27 1004.7
20260504211558 65 264 7.0 18.0 0.00 0.00 0.00 28 1004.9
20260504210134 64 252 9.0 20.0 0.00 0.00 0.00 28 1004.9
20260504204532 64 262 11.0 21.0 0.00 0.00 0.00 28 1005.1
20260504203028 65 208 8.0 15.0 0.00 0.00 0.00 28 1005.0
20260504201529 64 163 9.0 19.0 0.00 0.00 0.00 28 1004.9
20260504200025 65 219 7.0 16.0 0.00 0.00 0.00 28 1004.8
20260504194522 65 262 7.0 16.0 0.00 0.00 0.00 27 1005.0
20260504193021 64 246 9.0 20.0 0.00 0.00 0.00 26 1004.7
20260504191519 64 210 7.0 17.0 0.00 0.00 0.00 26 1004.9
20260504190017 66 225 8.0 19.0 0.00 0.00 0.00 26 1004.7
20260504184514 67 201 7.0 15.0 0.00 0.00 0.00 27 1004.9
20260504183012 65 261 8.0 16.0 0.00 0.00 0.00 27 1005.0
20260504181510 66 204 6.0 13.0 0.00 0.00 0.00 27 1004.8
20260504180008 67 150 7.0 12.0 0.00 0.00 0.00 28 1004.7
20260504174503 65 162 4.0 13.0 0.00 0.00 0.00 29 1004.9
20260504173001 64 219 6.0 12.0 0.00 0.00 0.00 30 1004.8
20260504171559 65 195 5.0 12.0 0.00 0.00 0.00 31 1004.9
20260504170158 64 133 4.0 12.0 0.00 0.00 0.00 33 1005.2
20260504120103 53 135 3.0 8.0 0.00 0.00 0.00 37 1003.7
20260504081506 57 165 4.0 13.0 0.00 0.00 0.00 27 1005.0